Index of /20260509/WXO-DD/model_caps/3km/00/006
Name Last modified Size Description
Parent Directory -
20260509T00Z_MSC_CAPS_AbsoluteVorticity_IsbL-0250_RLatLon0.03_PT006H.grib2 2026-05-09 06:05 1.1M
20260509T00Z_MSC_CAPS_AbsoluteVorticity_IsbL-0500_RLatLon0.03_PT006H.grib2 2026-05-09 06:05 1.1M
20260509T00Z_MSC_CAPS_AbsoluteVorticity_IsbL-0700_RLatLon0.03_PT006H.grib2 2026-05-09 06:05 1.0M
20260509T00Z_MSC_CAPS_AbsoluteVorticity_IsbL-0850_RLatLon0.03_PT006H.grib2 2026-05-09 06:05 1.3M
20260509T00Z_MSC_CAPS_AbsoluteVorticity_IsbL-1000_RLatLon0.03_PT006H.grib2 2026-05-09 06:05 1.3M
20260509T00Z_MSC_CAPS_AirDensity_AGL-120m_RLatLon0.03_PT006H.grib2 2026-05-09 06:05 1.4M
20260509T00Z_MSC_CAPS_AirDensity_AGL-40m_RLatLon0.03_PT006H.grib2 2026-05-09 06:05 1.4M
20260509T00Z_MSC_CAPS_AirDensity_AGL-80m_RLatLon0.03_PT006H.grib2 2026-05-09 06:05 1.4M
20260509T00Z_MSC_CAPS_AirTemp_AGL-120m_RLatLon0.03_PT006H.grib2 2026-05-09 06:05 1.7M
20260509T00Z_MSC_CAPS_AirTemp_AGL-2m_RLatLon0.03_PT006H.grib2 2026-05-09 06:05 2.1M
20260509T00Z_MSC_CAPS_AirTemp_AGL-40m_RLatLon0.03_PT006H.grib2 2026-05-09 06:05 1.8M
20260509T00Z_MSC_CAPS_AirTemp_AGL-80m_RLatLon0.03_PT006H.grib2 2026-05-09 06:05 1.8M
20260509T00Z_MSC_CAPS_AirTemp_IsbL-0050_RLatLon0.03_PT006H.grib2 2026-05-09 06:05 689K
20260509T00Z_MSC_CAPS_AirTemp_IsbL-0100_RLatLon0.03_PT006H.grib2 2026-05-09 06:05 941K
20260509T00Z_MSC_CAPS_AirTemp_IsbL-0150_RLatLon0.03_PT006H.grib2 2026-05-09 06:05 744K
20260509T00Z_MSC_CAPS_AirTemp_IsbL-0175_RLatLon0.03_PT006H.grib2 2026-05-09 06:05 772K
20260509T00Z_MSC_CAPS_AirTemp_IsbL-0200_RLatLon0.03_PT006H.grib2 2026-05-09 06:05 795K
20260509T00Z_MSC_CAPS_AirTemp_IsbL-0225_RLatLon0.03_PT006H.grib2 2026-05-09 06:05 800K
20260509T00Z_MSC_CAPS_AirTemp_IsbL-0250_RLatLon0.03_PT006H.grib2 2026-05-09 06:05 787K
20260509T00Z_MSC_CAPS_AirTemp_IsbL-0275_RLatLon0.03_PT006H.grib2 2026-05-09 06:05 781K
20260509T00Z_MSC_CAPS_AirTemp_IsbL-0300_RLatLon0.03_PT006H.grib2 2026-05-09 06:05 1.0M
20260509T00Z_MSC_CAPS_AirTemp_IsbL-0350_RLatLon0.03_PT006H.grib2 2026-05-09 06:05 751K
20260509T00Z_MSC_CAPS_AirTemp_IsbL-0400_RLatLon0.03_PT006H.grib2 2026-05-09 06:05 756K
20260509T00Z_MSC_CAPS_AirTemp_IsbL-0450_RLatLon0.03_PT006H.grib2 2026-05-09 06:05 774K
20260509T00Z_MSC_CAPS_AirTemp_IsbL-0500_RLatLon0.03_PT006H.grib2 2026-05-09 06:05 791K
20260509T00Z_MSC_CAPS_AirTemp_IsbL-0550_RLatLon0.03_PT006H.grib2 2026-05-09 06:05 809K
20260509T00Z_MSC_CAPS_AirTemp_IsbL-0600_RLatLon0.03_PT006H.grib2 2026-05-09 06:05 828K
20260509T00Z_MSC_CAPS_AirTemp_IsbL-0650_RLatLon0.03_PT006H.grib2 2026-05-09 06:05 854K
20260509T00Z_MSC_CAPS_AirTemp_IsbL-0700_RLatLon0.03_PT006H.grib2 2026-05-09 06:05 884K
20260509T00Z_MSC_CAPS_AirTemp_IsbL-0750_RLatLon0.03_PT006H.grib2 2026-05-09 06:05 1.0M
20260509T00Z_MSC_CAPS_AirTemp_IsbL-0800_RLatLon0.03_PT006H.grib2 2026-05-09 06:05 1.1M
20260509T00Z_MSC_CAPS_AirTemp_IsbL-0850_RLatLon0.03_PT006H.grib2 2026-05-09 06:05 1.1M
20260509T00Z_MSC_CAPS_AirTemp_IsbL-0875_RLatLon0.03_PT006H.grib2 2026-05-09 06:05 1.1M
20260509T00Z_MSC_CAPS_AirTemp_IsbL-0900_RLatLon0.03_PT006H.grib2 2026-05-09 06:05 1.1M
20260509T00Z_MSC_CAPS_AirTemp_IsbL-0925_RLatLon0.03_PT006H.grib2 2026-05-09 06:05 1.1M
20260509T00Z_MSC_CAPS_AirTemp_IsbL-0950_RLatLon0.03_PT006H.grib2 2026-05-09 06:05 1.1M
20260509T00Z_MSC_CAPS_AirTemp_IsbL-0970_RLatLon0.03_PT006H.grib2 2026-05-09 06:05 1.1M
20260509T00Z_MSC_CAPS_AirTemp_IsbL-0985_RLatLon0.03_PT006H.grib2 2026-05-09 06:05 1.1M
20260509T00Z_MSC_CAPS_AirTemp_IsbL-1000_RLatLon0.03_PT006H.grib2 2026-05-09 06:05 1.1M
20260509T00Z_MSC_CAPS_AirTemp_IsbL-1015_RLatLon0.03_PT006H.grib2 2026-05-09 06:05 1.2M
20260509T00Z_MSC_CAPS_Albedo_Sfc_RLatLon0.03_PT006H.grib2 2026-05-09 06:05 2.7M
20260509T00Z_MSC_CAPS_CAPE_Sfc_RLatLon0.03_PT006H.grib2 2026-05-09 06:05 93K
20260509T00Z_MSC_CAPS_CloudWater_EAtm_RLatLon0.03_PT006H.grib2 2026-05-09 06:05 1.5M
20260509T00Z_MSC_CAPS_ConvectivePrecip-Accum_Sfc_RLatLon0.03_PT006H.grib2 2026-05-09 06:05 2.1M
20260509T00Z_MSC_CAPS_DewPointDepression_AGL-120m_RLatLon0.03_PT006H.grib2 2026-05-09 06:05 2.0M
20260509T00Z_MSC_CAPS_DewPointDepression_AGL-2m_RLatLon0.03_PT006H.grib2 2026-05-09 06:05 2.1M
20260509T00Z_MSC_CAPS_DewPointDepression_AGL-40m_RLatLon0.03_PT006H.grib2 2026-05-09 06:05 2.0M
20260509T00Z_MSC_CAPS_DewPointDepression_AGL-80m_RLatLon0.03_PT006H.grib2 2026-05-09 06:05 2.0M
20260509T00Z_MSC_CAPS_DewPointDepression_IsbL-0050_RLatLon0.03_PT006H.grib2 2026-05-09 06:05 3.1K
20260509T00Z_MSC_CAPS_DewPointDepression_IsbL-0100_RLatLon0.03_PT006H.grib2 2026-05-09 06:05 70K
20260509T00Z_MSC_CAPS_DewPointDepression_IsbL-0150_RLatLon0.03_PT006H.grib2 2026-05-09 06:05 77K
20260509T00Z_MSC_CAPS_DewPointDepression_IsbL-0175_RLatLon0.03_PT006H.grib2 2026-05-09 06:05 180K
20260509T00Z_MSC_CAPS_DewPointDepression_IsbL-0200_RLatLon0.03_PT006H.grib2 2026-05-09 06:05 409K
20260509T00Z_MSC_CAPS_DewPointDepression_IsbL-0225_RLatLon0.03_PT006H.grib2 2026-05-09 06:05 601K
20260509T00Z_MSC_CAPS_DewPointDepression_IsbL-0250_RLatLon0.03_PT006H.grib2 2026-05-09 06:05 826K
20260509T00Z_MSC_CAPS_DewPointDepression_IsbL-0275_RLatLon0.03_PT006H.grib2 2026-05-09 06:05 968K
20260509T00Z_MSC_CAPS_DewPointDepression_IsbL-0300_RLatLon0.03_PT006H.grib2 2026-05-09 06:05 1.0M
20260509T00Z_MSC_CAPS_DewPointDepression_IsbL-0350_RLatLon0.03_PT006H.grib2 2026-05-09 06:05 1.0M
20260509T00Z_MSC_CAPS_DewPointDepression_IsbL-0400_RLatLon0.03_PT006H.grib2 2026-05-09 06:05 1.1M
20260509T00Z_MSC_CAPS_DewPointDepression_IsbL-0450_RLatLon0.03_PT006H.grib2 2026-05-09 06:05 1.1M
20260509T00Z_MSC_CAPS_DewPointDepression_IsbL-0500_RLatLon0.03_PT006H.grib2 2026-05-09 06:05 1.1M
20260509T00Z_MSC_CAPS_DewPointDepression_IsbL-0550_RLatLon0.03_PT006H.grib2 2026-05-09 06:05 1.1M
20260509T00Z_MSC_CAPS_DewPointDepression_IsbL-0600_RLatLon0.03_PT006H.grib2 2026-05-09 06:05 1.2M
20260509T00Z_MSC_CAPS_DewPointDepression_IsbL-0650_RLatLon0.03_PT006H.grib2 2026-05-09 06:05 1.2M
20260509T00Z_MSC_CAPS_DewPointDepression_IsbL-0700_RLatLon0.03_PT006H.grib2 2026-05-09 06:05 1.2M
20260509T00Z_MSC_CAPS_DewPointDepression_IsbL-0750_RLatLon0.03_PT006H.grib2 2026-05-09 06:05 1.2M
20260509T00Z_MSC_CAPS_DewPointDepression_IsbL-0800_RLatLon0.03_PT006H.grib2 2026-05-09 06:05 1.3M
20260509T00Z_MSC_CAPS_DewPointDepression_IsbL-0850_RLatLon0.03_PT006H.grib2 2026-05-09 06:05 1.3M
20260509T00Z_MSC_CAPS_DewPointDepression_IsbL-0875_RLatLon0.03_PT006H.grib2 2026-05-09 06:05 1.3M
20260509T00Z_MSC_CAPS_DewPointDepression_IsbL-0900_RLatLon0.03_PT006H.grib2 2026-05-09 06:05 1.3M
20260509T00Z_MSC_CAPS_DewPointDepression_IsbL-0925_RLatLon0.03_PT006H.grib2 2026-05-09 06:05 1.3M
20260509T00Z_MSC_CAPS_DewPointDepression_IsbL-0950_RLatLon0.03_PT006H.grib2 2026-05-09 06:05 1.3M
20260509T00Z_MSC_CAPS_DewPointDepression_IsbL-0970_RLatLon0.03_PT006H.grib2 2026-05-09 06:05 1.3M
20260509T00Z_MSC_CAPS_DewPointDepression_IsbL-0985_RLatLon0.03_PT006H.grib2 2026-05-09 06:05 1.3M
20260509T00Z_MSC_CAPS_DewPointDepression_IsbL-1000_RLatLon0.03_PT006H.grib2 2026-05-09 06:05 1.3M
20260509T00Z_MSC_CAPS_DewPointDepression_IsbL-1015_RLatLon0.03_PT006H.grib2 2026-05-09 06:05 1.3M
20260509T00Z_MSC_CAPS_DewPoint_AGL-120m_RLatLon0.03_PT006H.grib2 2026-05-09 06:05 3.5M
20260509T00Z_MSC_CAPS_DewPoint_AGL-2m_RLatLon0.03_PT006H.grib2 2026-05-09 06:05 2.2M
20260509T00Z_MSC_CAPS_DewPoint_AGL-40m_RLatLon0.03_PT006H.grib2 2026-05-09 06:05 3.6M
20260509T00Z_MSC_CAPS_DewPoint_AGL-80m_RLatLon0.03_PT006H.grib2 2026-05-09 06:05 3.6M
20260509T00Z_MSC_CAPS_DownwardLongwaveRadiationFlux-Accum_Sfc_RLatLon0.03_PT006H.grib2 2026-05-09 06:05 2.4M
20260509T00Z_MSC_CAPS_DownwardShortwaveRadiationFlux-Accum_NTAtm_RLatLon0.03_PT006H.grib2 2026-05-09 06:05 337K
20260509T00Z_MSC_CAPS_DownwardShortwaveRadiationFlux-Accum_Sfc_RLatLon0.03_PT006H.grib2 2026-05-09 06:05 1.8M
20260509T00Z_MSC_CAPS_FreezingRain-Accum_Sfc_RLatLon0.03_PT006H.grib2 2026-05-09 06:05 194K
20260509T00Z_MSC_CAPS_GeopotentialHeight_IsbL-0050_RLatLon0.03_PT006H.grib2 2026-05-09 06:05 829K
20260509T00Z_MSC_CAPS_GeopotentialHeight_IsbL-0100_RLatLon0.03_PT006H.grib2 2026-05-09 06:05 819K
20260509T00Z_MSC_CAPS_GeopotentialHeight_IsbL-0150_RLatLon0.03_PT006H.grib2 2026-05-09 06:05 602K
20260509T00Z_MSC_CAPS_GeopotentialHeight_IsbL-0175_RLatLon0.03_PT006H.grib2 2026-05-09 06:05 721K
20260509T00Z_MSC_CAPS_GeopotentialHeight_IsbL-0200_RLatLon0.03_PT006H.grib2 2026-05-09 06:05 737K
20260509T00Z_MSC_CAPS_GeopotentialHeight_IsbL-0225_RLatLon0.03_PT006H.grib2 2026-05-09 06:05 751K
20260509T00Z_MSC_CAPS_GeopotentialHeight_IsbL-0250_RLatLon0.03_PT006H.grib2 2026-05-09 06:05 767K
20260509T00Z_MSC_CAPS_GeopotentialHeight_IsbL-0275_RLatLon0.03_PT006H.grib2 2026-05-09 06:05 775K
20260509T00Z_MSC_CAPS_GeopotentialHeight_IsbL-0300_RLatLon0.03_PT006H.grib2 2026-05-09 06:05 781K
20260509T00Z_MSC_CAPS_GeopotentialHeight_IsbL-0350_RLatLon0.03_PT006H.grib2 2026-05-09 06:05 783K
20260509T00Z_MSC_CAPS_GeopotentialHeight_IsbL-0400_RLatLon0.03_PT006H.grib2 2026-05-09 06:05 776K
20260509T00Z_MSC_CAPS_GeopotentialHeight_IsbL-0450_RLatLon0.03_PT006H.grib2 2026-05-09 06:05 769K
20260509T00Z_MSC_CAPS_GeopotentialHeight_IsbL-0500_RLatLon0.03_PT006H.grib2 2026-05-09 06:05 764K
20260509T00Z_MSC_CAPS_GeopotentialHeight_IsbL-0550_RLatLon0.03_PT006H.grib2 2026-05-09 06:05 757K
20260509T00Z_MSC_CAPS_GeopotentialHeight_IsbL-0600_RLatLon0.03_PT006H.grib2 2026-05-09 06:05 750K
20260509T00Z_MSC_CAPS_GeopotentialHeight_IsbL-0650_RLatLon0.03_PT006H.grib2 2026-05-09 06:05 639K
20260509T00Z_MSC_CAPS_GeopotentialHeight_IsbL-0700_RLatLon0.03_PT006H.grib2 2026-05-09 06:05 638K
20260509T00Z_MSC_CAPS_GeopotentialHeight_IsbL-0750_RLatLon0.03_PT006H.grib2 2026-05-09 06:05 640K
20260509T00Z_MSC_CAPS_GeopotentialHeight_IsbL-0800_RLatLon0.03_PT006H.grib2 2026-05-09 06:05 824K
20260509T00Z_MSC_CAPS_GeopotentialHeight_IsbL-0850_RLatLon0.03_PT006H.grib2 2026-05-09 06:05 831K
20260509T00Z_MSC_CAPS_GeopotentialHeight_IsbL-0875_RLatLon0.03_PT006H.grib2 2026-05-09 06:05 835K
20260509T00Z_MSC_CAPS_GeopotentialHeight_IsbL-0900_RLatLon0.03_PT006H.grib2 2026-05-09 06:05 842K
20260509T00Z_MSC_CAPS_GeopotentialHeight_IsbL-0925_RLatLon0.03_PT006H.grib2 2026-05-09 06:05 832K
20260509T00Z_MSC_CAPS_GeopotentialHeight_IsbL-0950_RLatLon0.03_PT006H.grib2 2026-05-09 06:05 851K
20260509T00Z_MSC_CAPS_GeopotentialHeight_IsbL-0970_RLatLon0.03_PT006H.grib2 2026-05-09 06:05 868K
20260509T00Z_MSC_CAPS_GeopotentialHeight_IsbL-0985_RLatLon0.03_PT006H.grib2 2026-05-09 06:05 877K
20260509T00Z_MSC_CAPS_GeopotentialHeight_IsbL-1000_RLatLon0.03_PT006H.grib2 2026-05-09 06:05 886K
20260509T00Z_MSC_CAPS_GeopotentialHeight_IsbL-1015_RLatLon0.03_PT006H.grib2 2026-05-09 06:05 881K
20260509T00Z_MSC_CAPS_GeopotentialHeight_Sfc_RLatLon0.03_PT006H.grib2 2026-05-09 06:05 1.0M
20260509T00Z_MSC_CAPS_IcePellets-Accum_Sfc_RLatLon0.03_PT006H.grib2 2026-05-09 06:05 8.1K
20260509T00Z_MSC_CAPS_LatentHeatNetFlux_Sfc_RLatLon0.03_PT006H.grib2 2026-05-09 06:05 2.2M
20260509T00Z_MSC_CAPS_LiftedIndex-MU-VT_IsbL-0500_RLatLon0.03_PT006H.grib2 2026-05-09 06:05 3.3M
20260509T00Z_MSC_CAPS_MixedLayerThickness_Sfc_RLatLon0.03_PT006H.nc 2026-05-09 06:11 16M
20260509T00Z_MSC_CAPS_NetLongwaveRadiationFlux-Accum_Sfc_RLatLon0.03_PT006H.grib2 2026-05-09 06:05 2.7M
20260509T00Z_MSC_CAPS_NetShortwaveRadiationFlux-Accum_Sfc_RLatLon0.03_PT006H.grib2 2026-05-09 06:05 2.2M
20260509T00Z_MSC_CAPS_PlanetaryBoundaryLayerHeight_Sfc_RLatLon0.03_PT006H.grib2 2026-05-09 06:05 2.8M
20260509T00Z_MSC_CAPS_Precip-Accum_Sfc_RLatLon0.03_PT006H.grib2 2026-05-09 06:05 3.4M
20260509T00Z_MSC_CAPS_PrecipRate_Sfc_RLatLon0.03_PT006H.grib2 2026-05-09 06:05 536K
20260509T00Z_MSC_CAPS_PrecipType-Instant_Sfc_RLatLon0.03_PT006H.grib2 2026-05-09 06:05 1.7M
20260509T00Z_MSC_CAPS_Pressure_MSL_RLatLon0.03_PT006H.grib2 2026-05-09 06:05 768K
20260509T00Z_MSC_CAPS_Pressure_Sfc_RLatLon0.03_PT006H.grib2 2026-05-09 06:05 1.2M
20260509T00Z_MSC_CAPS_RadiativeTemp_Sfc_RLatLon0.03_PT006H.grib2 2026-05-09 06:05 2.1M
20260509T00Z_MSC_CAPS_Rain-Accum_Sfc_RLatLon0.03_PT006H.grib2 2026-05-09 06:05 1.7M
20260509T00Z_MSC_CAPS_RelativeHumidity_AGL-120m_RLatLon0.03_PT006H.grib2 2026-05-09 06:05 2.7M
20260509T00Z_MSC_CAPS_RelativeHumidity_AGL-2m_RLatLon0.03_PT006H.grib2 2026-05-09 06:05 2.8M
20260509T00Z_MSC_CAPS_RelativeHumidity_AGL-40m_RLatLon0.03_PT006H.grib2 2026-05-09 06:05 2.7M
20260509T00Z_MSC_CAPS_RelativeHumidity_AGL-80m_RLatLon0.03_PT006H.grib2 2026-05-09 06:05 2.7M
20260509T00Z_MSC_CAPS_RelativeHumidity_IsbL-0050_RLatLon0.03_PT006H.grib2 2026-05-09 06:05 942K
20260509T00Z_MSC_CAPS_RelativeHumidity_IsbL-0100_RLatLon0.03_PT006H.grib2 2026-05-09 06:05 1.1M
20260509T00Z_MSC_CAPS_RelativeHumidity_IsbL-0150_RLatLon0.03_PT006H.grib2 2026-05-09 06:05 465K
20260509T00Z_MSC_CAPS_RelativeHumidity_IsbL-0175_RLatLon0.03_PT006H.grib2 2026-05-09 06:05 458K
20260509T00Z_MSC_CAPS_RelativeHumidity_IsbL-0200_RLatLon0.03_PT006H.grib2 2026-05-09 06:05 641K
20260509T00Z_MSC_CAPS_RelativeHumidity_IsbL-0225_RLatLon0.03_PT006H.grib2 2026-05-09 06:05 895K
20260509T00Z_MSC_CAPS_RelativeHumidity_IsbL-0250_RLatLon0.03_PT006H.grib2 2026-05-09 06:05 1.1M
20260509T00Z_MSC_CAPS_RelativeHumidity_IsbL-0275_RLatLon0.03_PT006H.grib2 2026-05-09 06:05 1.4M
20260509T00Z_MSC_CAPS_RelativeHumidity_IsbL-0300_RLatLon0.03_PT006H.grib2 2026-05-09 06:05 1.6M
20260509T00Z_MSC_CAPS_RelativeHumidity_IsbL-0350_RLatLon0.03_PT006H.grib2 2026-05-09 06:05 1.9M
20260509T00Z_MSC_CAPS_RelativeHumidity_IsbL-0400_RLatLon0.03_PT006H.grib2 2026-05-09 06:05 2.0M
20260509T00Z_MSC_CAPS_RelativeHumidity_IsbL-0450_RLatLon0.03_PT006H.grib2 2026-05-09 06:05 1.9M
20260509T00Z_MSC_CAPS_RelativeHumidity_IsbL-0500_RLatLon0.03_PT006H.grib2 2026-05-09 06:05 2.0M
20260509T00Z_MSC_CAPS_RelativeHumidity_IsbL-0550_RLatLon0.03_PT006H.grib2 2026-05-09 06:05 2.0M
20260509T00Z_MSC_CAPS_RelativeHumidity_IsbL-0600_RLatLon0.03_PT006H.grib2 2026-05-09 06:05 2.2M
20260509T00Z_MSC_CAPS_RelativeHumidity_IsbL-0650_RLatLon0.03_PT006H.grib2 2026-05-09 06:05 2.2M
20260509T00Z_MSC_CAPS_RelativeHumidity_IsbL-0700_RLatLon0.03_PT006H.grib2 2026-05-09 06:05 2.2M
20260509T00Z_MSC_CAPS_RelativeHumidity_IsbL-0750_RLatLon0.03_PT006H.grib2 2026-05-09 06:05 2.3M
20260509T00Z_MSC_CAPS_RelativeHumidity_IsbL-0800_RLatLon0.03_PT006H.grib2 2026-05-09 06:05 2.4M
20260509T00Z_MSC_CAPS_RelativeHumidity_IsbL-0850_RLatLon0.03_PT006H.grib2 2026-05-09 06:05 2.5M
20260509T00Z_MSC_CAPS_RelativeHumidity_IsbL-0875_RLatLon0.03_PT006H.grib2 2026-05-09 06:05 2.5M
20260509T00Z_MSC_CAPS_RelativeHumidity_IsbL-0900_RLatLon0.03_PT006H.grib2 2026-05-09 06:05 2.5M
20260509T00Z_MSC_CAPS_RelativeHumidity_IsbL-0925_RLatLon0.03_PT006H.grib2 2026-05-09 06:05 2.6M
20260509T00Z_MSC_CAPS_RelativeHumidity_IsbL-0950_RLatLon0.03_PT006H.grib2 2026-05-09 06:05 2.7M
20260509T00Z_MSC_CAPS_RelativeHumidity_IsbL-0970_RLatLon0.03_PT006H.grib2 2026-05-09 06:05 2.7M
20260509T00Z_MSC_CAPS_RelativeHumidity_IsbL-0985_RLatLon0.03_PT006H.grib2 2026-05-09 06:05 2.7M
20260509T00Z_MSC_CAPS_RelativeHumidity_IsbL-1000_RLatLon0.03_PT006H.grib2 2026-05-09 06:05 2.8M
20260509T00Z_MSC_CAPS_RelativeHumidity_IsbL-1015_RLatLon0.03_PT006H.grib2 2026-05-09 06:05 2.8M
20260509T00Z_MSC_CAPS_Runoff-Accum_Sfc_RLatLon0.03_PT006H.grib2 2026-05-09 06:05 300K
20260509T00Z_MSC_CAPS_SeaIceAreaFraction_Sfc_RLatLon0.03_PT006H.nc 2026-05-09 06:11 15M
20260509T00Z_MSC_CAPS_SeaIceCompressiveStrength_Sfc_RLatLon0.03_PT006H.nc 2026-05-09 06:11 15M
20260509T00Z_MSC_CAPS_SeaIceDivergence_Sfc_RLatLon0.03_PT006H.nc 2026-05-09 06:11 15M
20260509T00Z_MSC_CAPS_SeaIceInternalPressure_Sfc_RLatLon0.03_PT006H.nc 2026-05-09 06:11 15M
20260509T00Z_MSC_CAPS_SeaIceShear_Sfc_RLatLon0.03_PT006H.nc 2026-05-09 06:11 15M
20260509T00Z_MSC_CAPS_SeaIceSnowTemp_Sfc_RLatLon0.03_PT006H.nc 2026-05-09 06:11 14M
20260509T00Z_MSC_CAPS_SeaIceSnowVolume_Sfc_RLatLon0.03_PT006H.nc 2026-05-09 06:11 15M
20260509T00Z_MSC_CAPS_SeaIceVelocityX_Sfc_RLatLon0.03_PT006H.nc 2026-05-09 06:11 15M
20260509T00Z_MSC_CAPS_SeaIceVelocityY_Sfc_RLatLon0.03_PT006H.nc 2026-05-09 06:11 15M
20260509T00Z_MSC_CAPS_SeaIceVolume_Sfc_RLatLon0.03_PT006H.nc 2026-05-09 06:11 15M
20260509T00Z_MSC_CAPS_SeaSurfaceHeight_Sfc_RLatLon0.03_PT006H.nc 2026-05-09 06:11 16M
20260509T00Z_MSC_CAPS_SeaWaterSalinity_DBS-0.5m_RLatLon0.03_PT006H.nc 2026-05-09 06:11 16M
20260509T00Z_MSC_CAPS_SeaWaterSalinity_DBS-all_RLatLon0.03_PT006H.nc 2026-05-09 06:11 107M
20260509T00Z_MSC_CAPS_SeaWaterTemp_DBS-0.5m_RLatLon0.03_PT006H.nc 2026-05-09 06:11 15M
20260509T00Z_MSC_CAPS_SeaWaterTemp_DBS-all_RLatLon0.03_PT006H.nc 2026-05-09 06:11 88M
20260509T00Z_MSC_CAPS_SeaWaterVelocityX_DBS-0.5m_RLatLon0.03_PT006H.nc 2026-05-09 06:11 18M
20260509T00Z_MSC_CAPS_SeaWaterVelocityX_DBS-all_RLatLon0.03_PT006H.nc 2026-05-09 06:11 210M
20260509T00Z_MSC_CAPS_SeaWaterVelocityY_DBS-0.5m_RLatLon0.03_PT006H.nc 2026-05-09 06:11 18M
20260509T00Z_MSC_CAPS_SeaWaterVelocityY_DBS-all_RLatLon0.03_PT006H.nc 2026-05-09 06:11 217M
20260509T00Z_MSC_CAPS_SensibleHeatNetFlux_Sfc_RLatLon0.03_PT006H.grib2 2026-05-09 06:05 2.0M
20260509T00Z_MSC_CAPS_ShowalterIndex_IsbL-0500_RLatLon0.03_PT006H.grib2 2026-05-09 06:05 4.3M
20260509T00Z_MSC_CAPS_Snow-Accum_Sfc_RLatLon0.03_PT006H.grib2 2026-05-09 06:05 2.2M
20260509T00Z_MSC_CAPS_SnowDensity_Sfc_RLatLon0.03_PT006H.grib2 2026-05-09 06:05 1.2M
20260509T00Z_MSC_CAPS_SnowDepthWaterEquivalent_Sfc_RLatLon0.03_PT006H.grib2 2026-05-09 06:05 635K
20260509T00Z_MSC_CAPS_SnowDepth_Sfc_RLatLon0.03_PT006H.grib2 2026-05-09 06:05 1.1M
20260509T00Z_MSC_CAPS_SoilTemp_DBS-0to10cm_RLatLon0.03_PT006H.grib2 2026-05-09 06:05 1.3M
20260509T00Z_MSC_CAPS_SoilTemp_Sfc_RLatLon0.03_PT006H.grib2 2026-05-09 06:05 1.8M
20260509T00Z_MSC_CAPS_SoilVolumetricIceContent_Sfc_RLatLon0.03_PT006H.grib2 2026-05-09 06:05 1.3M
20260509T00Z_MSC_CAPS_SoilVolumetricWaterContent_DBS-0to10cm_RLatLon0.03_PT006H.grib2 2026-05-09 06:05 1.3M
20260509T00Z_MSC_CAPS_SoilVolumetricWaterContent_DBS-0to1cm_RLatLon0.03_PT006H.grib2 2026-05-09 06:05 1.7M
20260509T00Z_MSC_CAPS_SpecificHumidity_AGL-120m_RLatLon0.03_PT006H.grib2 2026-05-09 06:05 1.7M
20260509T00Z_MSC_CAPS_SpecificHumidity_AGL-2m_RLatLon0.03_PT006H.grib2 2026-05-09 06:05 2.1M
20260509T00Z_MSC_CAPS_SpecificHumidity_AGL-40m_RLatLon0.03_PT006H.grib2 2026-05-09 06:05 1.8M
20260509T00Z_MSC_CAPS_SpecificHumidity_AGL-80m_RLatLon0.03_PT006H.grib2 2026-05-09 06:05 1.7M
20260509T00Z_MSC_CAPS_SpecificHumidity_IsbL-0050_RLatLon0.03_PT006H.grib2 2026-05-09 06:05 865K
20260509T00Z_MSC_CAPS_SpecificHumidity_IsbL-0100_RLatLon0.03_PT006H.grib2 2026-05-09 06:05 1.0M
20260509T00Z_MSC_CAPS_SpecificHumidity_IsbL-0150_RLatLon0.03_PT006H.grib2 2026-05-09 06:05 739K
20260509T00Z_MSC_CAPS_SpecificHumidity_IsbL-0175_RLatLon0.03_PT006H.grib2 2026-05-09 06:05 967K
20260509T00Z_MSC_CAPS_SpecificHumidity_IsbL-0200_RLatLon0.03_PT006H.grib2 2026-05-09 06:05 875K
20260509T00Z_MSC_CAPS_SpecificHumidity_IsbL-0225_RLatLon0.03_PT006H.grib2 2026-05-09 06:05 851K
20260509T00Z_MSC_CAPS_SpecificHumidity_IsbL-0250_RLatLon0.03_PT006H.grib2 2026-05-09 06:05 854K
20260509T00Z_MSC_CAPS_SpecificHumidity_IsbL-0275_RLatLon0.03_PT006H.grib2 2026-05-09 06:05 1.1M
20260509T00Z_MSC_CAPS_SpecificHumidity_IsbL-0300_RLatLon0.03_PT006H.grib2 2026-05-09 06:05 1.0M
20260509T00Z_MSC_CAPS_SpecificHumidity_IsbL-0350_RLatLon0.03_PT006H.grib2 2026-05-09 06:05 1.0M
20260509T00Z_MSC_CAPS_SpecificHumidity_IsbL-0400_RLatLon0.03_PT006H.grib2 2026-05-09 06:05 1.0M
20260509T00Z_MSC_CAPS_SpecificHumidity_IsbL-0450_RLatLon0.03_PT006H.grib2 2026-05-09 06:05 1.1M
20260509T00Z_MSC_CAPS_SpecificHumidity_IsbL-0500_RLatLon0.03_PT006H.grib2 2026-05-09 06:05 1.0M
20260509T00Z_MSC_CAPS_SpecificHumidity_IsbL-0550_RLatLon0.03_PT006H.grib2 2026-05-09 06:05 1.2M
20260509T00Z_MSC_CAPS_SpecificHumidity_IsbL-0600_RLatLon0.03_PT006H.grib2 2026-05-09 06:05 1.3M
20260509T00Z_MSC_CAPS_SpecificHumidity_IsbL-0650_RLatLon0.03_PT006H.grib2 2026-05-09 06:05 1.1M
20260509T00Z_MSC_CAPS_SpecificHumidity_IsbL-0700_RLatLon0.03_PT006H.grib2 2026-05-09 06:05 1.2M
20260509T00Z_MSC_CAPS_SpecificHumidity_IsbL-0750_RLatLon0.03_PT006H.grib2 2026-05-09 06:05 1.4M
20260509T00Z_MSC_CAPS_SpecificHumidity_IsbL-0800_RLatLon0.03_PT006H.grib2 2026-05-09 06:05 1.6M
20260509T00Z_MSC_CAPS_SpecificHumidity_IsbL-0850_RLatLon0.03_PT006H.grib2 2026-05-09 06:05 1.7M
20260509T00Z_MSC_CAPS_SpecificHumidity_IsbL-0875_RLatLon0.03_PT006H.grib2 2026-05-09 06:05 1.8M
20260509T00Z_MSC_CAPS_SpecificHumidity_IsbL-0900_RLatLon0.03_PT006H.grib2 2026-05-09 06:05 1.8M
20260509T00Z_MSC_CAPS_SpecificHumidity_IsbL-0925_RLatLon0.03_PT006H.grib2 2026-05-09 06:05 1.5M
20260509T00Z_MSC_CAPS_SpecificHumidity_IsbL-0950_RLatLon0.03_PT006H.grib2 2026-05-09 06:05 1.9M
20260509T00Z_MSC_CAPS_SpecificHumidity_IsbL-0970_RLatLon0.03_PT006H.grib2 2026-05-09 06:05 2.0M
20260509T00Z_MSC_CAPS_SpecificHumidity_IsbL-0985_RLatLon0.03_PT006H.grib2 2026-05-09 06:05 2.0M
20260509T00Z_MSC_CAPS_SpecificHumidity_IsbL-1000_RLatLon0.03_PT006H.grib2 2026-05-09 06:05 2.0M
20260509T00Z_MSC_CAPS_SpecificHumidity_IsbL-1015_RLatLon0.03_PT006H.grib2 2026-05-09 06:05 2.1M
20260509T00Z_MSC_CAPS_SpecificHumidity_Sfc_RLatLon0.03_PT006H.grib2 2026-05-09 06:05 2.1M
20260509T00Z_MSC_CAPS_StormRelativeHelicity_Sfc_RLatLon0.03_PT006H.grib2 2026-05-09 06:05 3.2M
20260509T00Z_MSC_CAPS_Thickness_IsbL-1000to0500_RLatLon0.03_PT006H.grib2 2026-05-09 06:05 425K
20260509T00Z_MSC_CAPS_TotalCloudCover_Sfc_RLatLon0.03_PT006H.grib2 2026-05-09 06:05 3.3M
20260509T00Z_MSC_CAPS_TurboclineDepth_Sfc_RLatLon0.03_PT006H.nc 2026-05-09 06:11 16M
20260509T00Z_MSC_CAPS_UpwardLongwaveRadiationFlux_NTAtm_RLatLon0.03_PT006H.grib2 2026-05-09 06:05 2.8M
20260509T00Z_MSC_CAPS_UpwardShortwaveRadiationFlux_NTAtm_RLatLon0.03_PT006H.grib2 2026-05-09 06:05 1.7M
20260509T00Z_MSC_CAPS_VerticalVelocity_IsbL-0250_RLatLon0.03_PT006H.grib2 2026-05-09 06:05 921K
20260509T00Z_MSC_CAPS_VerticalVelocity_IsbL-0500_RLatLon0.03_PT006H.grib2 2026-05-09 06:05 1.2M
20260509T00Z_MSC_CAPS_VerticalVelocity_IsbL-0700_RLatLon0.03_PT006H.grib2 2026-05-09 06:05 1.0M
20260509T00Z_MSC_CAPS_VerticalVelocity_IsbL-0850_RLatLon0.03_PT006H.grib2 2026-05-09 06:05 1.1M
20260509T00Z_MSC_CAPS_VerticalVelocity_IsbL-1000_RLatLon0.03_PT006H.grib2 2026-05-09 06:05 1.4M
20260509T00Z_MSC_CAPS_WindDir_AGL-10m_RLatLon0.03_PT006H.grib2 2026-05-09 06:05 2.4M
20260509T00Z_MSC_CAPS_WindDir_AGL-120m_RLatLon0.03_PT006H.grib2 2026-05-09 06:05 1.2M
20260509T00Z_MSC_CAPS_WindDir_AGL-40m_RLatLon0.03_PT006H.grib2 2026-05-09 06:05 1.3M
20260509T00Z_MSC_CAPS_WindDir_AGL-80m_RLatLon0.03_PT006H.grib2 2026-05-09 06:05 1.2M
20260509T00Z_MSC_CAPS_WindDir_IsbL-0050_RLatLon0.03_PT006H.grib2 2026-05-09 06:05 1.1M
20260509T00Z_MSC_CAPS_WindDir_IsbL-0100_RLatLon0.03_PT006H.grib2 2026-05-09 06:05 1.0M
20260509T00Z_MSC_CAPS_WindDir_IsbL-0150_RLatLon0.03_PT006H.grib2 2026-05-09 06:05 1.1M
20260509T00Z_MSC_CAPS_WindDir_IsbL-0175_RLatLon0.03_PT006H.grib2 2026-05-09 06:05 1.0M
20260509T00Z_MSC_CAPS_WindDir_IsbL-0200_RLatLon0.03_PT006H.grib2 2026-05-09 06:05 1.2M
20260509T00Z_MSC_CAPS_WindDir_IsbL-0225_RLatLon0.03_PT006H.grib2 2026-05-09 06:05 1.1M
20260509T00Z_MSC_CAPS_WindDir_IsbL-0250_RLatLon0.03_PT006H.grib2 2026-05-09 06:05 1.1M
20260509T00Z_MSC_CAPS_WindDir_IsbL-0275_RLatLon0.03_PT006H.grib2 2026-05-09 06:05 1.1M
20260509T00Z_MSC_CAPS_WindDir_IsbL-0300_RLatLon0.03_PT006H.grib2 2026-05-09 06:05 1.1M
20260509T00Z_MSC_CAPS_WindDir_IsbL-0350_RLatLon0.03_PT006H.grib2 2026-05-09 06:05 1.1M
20260509T00Z_MSC_CAPS_WindDir_IsbL-0400_RLatLon0.03_PT006H.grib2 2026-05-09 06:05 1.1M
20260509T00Z_MSC_CAPS_WindDir_IsbL-0450_RLatLon0.03_PT006H.grib2 2026-05-09 06:05 1.2M
20260509T00Z_MSC_CAPS_WindDir_IsbL-0500_RLatLon0.03_PT006H.grib2 2026-05-09 06:05 1.2M
20260509T00Z_MSC_CAPS_WindDir_IsbL-0550_RLatLon0.03_PT006H.grib2 2026-05-09 06:05 1.3M
20260509T00Z_MSC_CAPS_WindDir_IsbL-0600_RLatLon0.03_PT006H.grib2 2026-05-09 06:05 1.2M
20260509T00Z_MSC_CAPS_WindDir_IsbL-0650_RLatLon0.03_PT006H.grib2 2026-05-09 06:05 1.3M
20260509T00Z_MSC_CAPS_WindDir_IsbL-0700_RLatLon0.03_PT006H.grib2 2026-05-09 06:05 1.4M
20260509T00Z_MSC_CAPS_WindDir_IsbL-0750_RLatLon0.03_PT006H.grib2 2026-05-09 06:05 1.5M
20260509T00Z_MSC_CAPS_WindDir_IsbL-0800_RLatLon0.03_PT006H.grib2 2026-05-09 06:05 1.6M
20260509T00Z_MSC_CAPS_WindDir_IsbL-0850_RLatLon0.03_PT006H.grib2 2026-05-09 06:05 1.7M
20260509T00Z_MSC_CAPS_WindDir_IsbL-0875_RLatLon0.03_PT006H.grib2 2026-05-09 06:05 1.8M
20260509T00Z_MSC_CAPS_WindDir_IsbL-0900_RLatLon0.03_PT006H.grib2 2026-05-09 06:05 1.8M
20260509T00Z_MSC_CAPS_WindDir_IsbL-0925_RLatLon0.03_PT006H.grib2 2026-05-09 06:05 1.9M
20260509T00Z_MSC_CAPS_WindDir_IsbL-0950_RLatLon0.03_PT006H.grib2 2026-05-09 06:05 2.0M
20260509T00Z_MSC_CAPS_WindDir_IsbL-0970_RLatLon0.03_PT006H.grib2 2026-05-09 06:05 2.1M
20260509T00Z_MSC_CAPS_WindDir_IsbL-0985_RLatLon0.03_PT006H.grib2 2026-05-09 06:05 2.2M
20260509T00Z_MSC_CAPS_WindDir_IsbL-1000_RLatLon0.03_PT006H.grib2 2026-05-09 06:05 2.3M
20260509T00Z_MSC_CAPS_WindDir_IsbL-1015_RLatLon0.03_PT006H.grib2 2026-05-09 06:05 2.3M
20260509T00Z_MSC_CAPS_WindGust-Max_AGL-10m_RLatLon0.03_PT006H.grib2 2026-05-09 06:05 2.4M
20260509T00Z_MSC_CAPS_WindGust-Min_AGL-10m_RLatLon0.03_PT006H.grib2 2026-05-09 06:05 2.4M
20260509T00Z_MSC_CAPS_WindGust_AGL-10m_RLatLon0.03_PT006H.grib2 2026-05-09 06:05 2.5M
20260509T00Z_MSC_CAPS_WindSpeed_AGL-10m_RLatLon0.03_PT006H.grib2 2026-05-09 06:05 2.1M
20260509T00Z_MSC_CAPS_WindSpeed_AGL-120m_RLatLon0.03_PT006H.grib2 2026-05-09 06:05 1.2M
20260509T00Z_MSC_CAPS_WindSpeed_AGL-40m_RLatLon0.03_PT006H.grib2 2026-05-09 06:05 1.3M
20260509T00Z_MSC_CAPS_WindSpeed_AGL-80m_RLatLon0.03_PT006H.grib2 2026-05-09 06:05 1.2M
20260509T00Z_MSC_CAPS_WindSpeed_IsbL-0050_RLatLon0.03_PT006H.grib2 2026-05-09 06:05 1.1M
20260509T00Z_MSC_CAPS_WindSpeed_IsbL-0100_RLatLon0.03_PT006H.grib2 2026-05-09 06:05 868K
20260509T00Z_MSC_CAPS_WindSpeed_IsbL-0150_RLatLon0.03_PT006H.grib2 2026-05-09 06:05 1.0M
20260509T00Z_MSC_CAPS_WindSpeed_IsbL-0175_RLatLon0.03_PT006H.grib2 2026-05-09 06:05 1.1M
20260509T00Z_MSC_CAPS_WindSpeed_IsbL-0200_RLatLon0.03_PT006H.grib2 2026-05-09 06:05 943K
20260509T00Z_MSC_CAPS_WindSpeed_IsbL-0225_RLatLon0.03_PT006H.grib2 2026-05-09 06:05 966K
20260509T00Z_MSC_CAPS_WindSpeed_IsbL-0250_RLatLon0.03_PT006H.grib2 2026-05-09 06:05 1.0M
20260509T00Z_MSC_CAPS_WindSpeed_IsbL-0275_RLatLon0.03_PT006H.grib2 2026-05-09 06:05 1.0M
20260509T00Z_MSC_CAPS_WindSpeed_IsbL-0300_RLatLon0.03_PT006H.grib2 2026-05-09 06:05 1.0M
20260509T00Z_MSC_CAPS_WindSpeed_IsbL-0350_RLatLon0.03_PT006H.grib2 2026-05-09 06:05 1.0M
20260509T00Z_MSC_CAPS_WindSpeed_IsbL-0400_RLatLon0.03_PT006H.grib2 2026-05-09 06:05 1.0M
20260509T00Z_MSC_CAPS_WindSpeed_IsbL-0450_RLatLon0.03_PT006H.grib2 2026-05-09 06:05 1.0M
20260509T00Z_MSC_CAPS_WindSpeed_IsbL-0500_RLatLon0.03_PT006H.grib2 2026-05-09 06:05 1.4M
20260509T00Z_MSC_CAPS_WindSpeed_IsbL-0550_RLatLon0.03_PT006H.grib2 2026-05-09 06:05 1.6M
20260509T00Z_MSC_CAPS_WindSpeed_IsbL-0600_RLatLon0.03_PT006H.grib2 2026-05-09 06:05 1.4M
20260509T00Z_MSC_CAPS_WindSpeed_IsbL-0650_RLatLon0.03_PT006H.grib2 2026-05-09 06:05 1.5M
20260509T00Z_MSC_CAPS_WindSpeed_IsbL-0700_RLatLon0.03_PT006H.grib2 2026-05-09 06:05 1.5M
20260509T00Z_MSC_CAPS_WindSpeed_IsbL-0750_RLatLon0.03_PT006H.grib2 2026-05-09 06:05 1.6M
20260509T00Z_MSC_CAPS_WindSpeed_IsbL-0800_RLatLon0.03_PT006H.grib2 2026-05-09 06:05 1.5M
20260509T00Z_MSC_CAPS_WindSpeed_IsbL-0850_RLatLon0.03_PT006H.grib2 2026-05-09 06:05 1.7M
20260509T00Z_MSC_CAPS_WindSpeed_IsbL-0875_RLatLon0.03_PT006H.grib2 2026-05-09 06:05 1.8M
20260509T00Z_MSC_CAPS_WindSpeed_IsbL-0900_RLatLon0.03_PT006H.grib2 2026-05-09 06:05 1.8M
20260509T00Z_MSC_CAPS_WindSpeed_IsbL-0925_RLatLon0.03_PT006H.grib2 2026-05-09 06:05 1.9M
20260509T00Z_MSC_CAPS_WindSpeed_IsbL-0950_RLatLon0.03_PT006H.grib2 2026-05-09 06:05 1.9M
20260509T00Z_MSC_CAPS_WindSpeed_IsbL-0970_RLatLon0.03_PT006H.grib2 2026-05-09 06:05 2.0M
20260509T00Z_MSC_CAPS_WindSpeed_IsbL-0985_RLatLon0.03_PT006H.grib2 2026-05-09 06:05 2.0M
20260509T00Z_MSC_CAPS_WindSpeed_IsbL-1000_RLatLon0.03_PT006H.grib2 2026-05-09 06:05 2.1M
20260509T00Z_MSC_CAPS_WindSpeed_IsbL-1015_RLatLon0.03_PT006H.grib2 2026-05-09 06:05 2.1M
20260509T00Z_MSC_CAPS_WindU_AGL-10m_RLatLon0.03_PT006H.grib2 2026-05-09 06:05 2.0M
20260509T00Z_MSC_CAPS_WindU_AGL-120m_RLatLon0.03_PT006H.grib2 2026-05-09 06:05 1.2M
20260509T00Z_MSC_CAPS_WindU_AGL-40m_RLatLon0.03_PT006H.grib2 2026-05-09 06:05 1.2M
20260509T00Z_MSC_CAPS_WindU_AGL-80m_RLatLon0.03_PT006H.grib2 2026-05-09 06:05 1.2M
20260509T00Z_MSC_CAPS_WindU_IsbL-0050_RLatLon0.03_PT006H.grib2 2026-05-09 06:05 762K
20260509T00Z_MSC_CAPS_WindU_IsbL-0100_RLatLon0.03_PT006H.grib2 2026-05-09 06:05 781K
20260509T00Z_MSC_CAPS_WindU_IsbL-0150_RLatLon0.03_PT006H.grib2 2026-05-09 06:05 917K
20260509T00Z_MSC_CAPS_WindU_IsbL-0175_RLatLon0.03_PT006H.grib2 2026-05-09 06:05 730K
20260509T00Z_MSC_CAPS_WindU_IsbL-0200_RLatLon0.03_PT006H.grib2 2026-05-09 06:05 883K
20260509T00Z_MSC_CAPS_WindU_IsbL-0225_RLatLon0.03_PT006H.grib2 2026-05-09 06:05 908K
20260509T00Z_MSC_CAPS_WindU_IsbL-0250_RLatLon0.03_PT006H.grib2 2026-05-09 06:05 926K
20260509T00Z_MSC_CAPS_WindU_IsbL-0275_RLatLon0.03_PT006H.grib2 2026-05-09 06:05 720K
20260509T00Z_MSC_CAPS_WindU_IsbL-0300_RLatLon0.03_PT006H.grib2 2026-05-09 06:05 727K
20260509T00Z_MSC_CAPS_WindU_IsbL-0350_RLatLon0.03_PT006H.grib2 2026-05-09 06:05 739K
20260509T00Z_MSC_CAPS_WindU_IsbL-0400_RLatLon0.03_PT006H.grib2 2026-05-09 06:05 957K
20260509T00Z_MSC_CAPS_WindU_IsbL-0450_RLatLon0.03_PT006H.grib2 2026-05-09 06:05 1.0M
20260509T00Z_MSC_CAPS_WindU_IsbL-0500_RLatLon0.03_PT006H.grib2 2026-05-09 06:05 1.0M
20260509T00Z_MSC_CAPS_WindU_IsbL-0550_RLatLon0.03_PT006H.grib2 2026-05-09 06:05 1.0M
20260509T00Z_MSC_CAPS_WindU_IsbL-0600_RLatLon0.03_PT006H.grib2 2026-05-09 06:05 963K
20260509T00Z_MSC_CAPS_WindU_IsbL-0650_RLatLon0.03_PT006H.grib2 2026-05-09 06:05 1.0M
20260509T00Z_MSC_CAPS_WindU_IsbL-0700_RLatLon0.03_PT006H.grib2 2026-05-09 06:05 1.0M
20260509T00Z_MSC_CAPS_WindU_IsbL-0750_RLatLon0.03_PT006H.grib2 2026-05-09 06:05 1.1M
20260509T00Z_MSC_CAPS_WindU_IsbL-0800_RLatLon0.03_PT006H.grib2 2026-05-09 06:05 1.1M
20260509T00Z_MSC_CAPS_WindU_IsbL-0850_RLatLon0.03_PT006H.grib2 2026-05-09 06:05 1.2M
20260509T00Z_MSC_CAPS_WindU_IsbL-0875_RLatLon0.03_PT006H.grib2 2026-05-09 06:05 1.2M
20260509T00Z_MSC_CAPS_WindU_IsbL-0900_RLatLon0.03_PT006H.grib2 2026-05-09 06:05 1.3M
20260509T00Z_MSC_CAPS_WindU_IsbL-0925_RLatLon0.03_PT006H.grib2 2026-05-09 06:05 1.3M
20260509T00Z_MSC_CAPS_WindU_IsbL-0950_RLatLon0.03_PT006H.grib2 2026-05-09 06:05 1.4M
20260509T00Z_MSC_CAPS_WindU_IsbL-0970_RLatLon0.03_PT006H.grib2 2026-05-09 06:05 1.8M
20260509T00Z_MSC_CAPS_WindU_IsbL-0985_RLatLon0.03_PT006H.grib2 2026-05-09 06:05 1.8M
20260509T00Z_MSC_CAPS_WindU_IsbL-1000_RLatLon0.03_PT006H.grib2 2026-05-09 06:05 1.9M
20260509T00Z_MSC_CAPS_WindU_IsbL-1015_RLatLon0.03_PT006H.grib2 2026-05-09 06:05 2.0M
20260509T00Z_MSC_CAPS_WindV_AGL-10m_RLatLon0.03_PT006H.grib2 2026-05-09 06:05 1.9M
20260509T00Z_MSC_CAPS_WindV_AGL-120m_RLatLon0.03_PT006H.grib2 2026-05-09 06:05 901K
20260509T00Z_MSC_CAPS_WindV_AGL-40m_RLatLon0.03_PT006H.grib2 2026-05-09 06:05 1.2M
20260509T00Z_MSC_CAPS_WindV_AGL-80m_RLatLon0.03_PT006H.grib2 2026-05-09 06:05 1.2M
20260509T00Z_MSC_CAPS_WindV_IsbL-0050_RLatLon0.03_PT006H.grib2 2026-05-09 06:05 766K
20260509T00Z_MSC_CAPS_WindV_IsbL-0100_RLatLon0.03_PT006H.grib2 2026-05-09 06:05 779K
20260509T00Z_MSC_CAPS_WindV_IsbL-0150_RLatLon0.03_PT006H.grib2 2026-05-09 06:05 911K
20260509T00Z_MSC_CAPS_WindV_IsbL-0175_RLatLon0.03_PT006H.grib2 2026-05-09 06:05 725K
20260509T00Z_MSC_CAPS_WindV_IsbL-0200_RLatLon0.03_PT006H.grib2 2026-05-09 06:05 876K
20260509T00Z_MSC_CAPS_WindV_IsbL-0225_RLatLon0.03_PT006H.grib2 2026-05-09 06:05 899K
20260509T00Z_MSC_CAPS_WindV_IsbL-0250_RLatLon0.03_PT006H.grib2 2026-05-09 06:05 918K
20260509T00Z_MSC_CAPS_WindV_IsbL-0275_RLatLon0.03_PT006H.grib2 2026-05-09 06:05 924K
20260509T00Z_MSC_CAPS_WindV_IsbL-0300_RLatLon0.03_PT006H.grib2 2026-05-09 06:05 720K
20260509T00Z_MSC_CAPS_WindV_IsbL-0350_RLatLon0.03_PT006H.grib2 2026-05-09 06:05 730K
20260509T00Z_MSC_CAPS_WindV_IsbL-0400_RLatLon0.03_PT006H.grib2 2026-05-09 06:05 952K
20260509T00Z_MSC_CAPS_WindV_IsbL-0450_RLatLon0.03_PT006H.grib2 2026-05-09 06:05 968K
20260509T00Z_MSC_CAPS_WindV_IsbL-0500_RLatLon0.03_PT006H.grib2 2026-05-09 06:05 1.0M
20260509T00Z_MSC_CAPS_WindV_IsbL-0550_RLatLon0.03_PT006H.grib2 2026-05-09 06:05 1.0M
20260509T00Z_MSC_CAPS_WindV_IsbL-0600_RLatLon0.03_PT006H.grib2 2026-05-09 06:05 949K
20260509T00Z_MSC_CAPS_WindV_IsbL-0650_RLatLon0.03_PT006H.grib2 2026-05-09 06:05 1.0M
20260509T00Z_MSC_CAPS_WindV_IsbL-0700_RLatLon0.03_PT006H.grib2 2026-05-09 06:05 1.0M
20260509T00Z_MSC_CAPS_WindV_IsbL-0750_RLatLon0.03_PT006H.grib2 2026-05-09 06:05 1.1M
20260509T00Z_MSC_CAPS_WindV_IsbL-0800_RLatLon0.03_PT006H.grib2 2026-05-09 06:05 1.1M
20260509T00Z_MSC_CAPS_WindV_IsbL-0850_RLatLon0.03_PT006H.grib2 2026-05-09 06:05 1.2M
20260509T00Z_MSC_CAPS_WindV_IsbL-0875_RLatLon0.03_PT006H.grib2 2026-05-09 06:05 1.2M
20260509T00Z_MSC_CAPS_WindV_IsbL-0900_RLatLon0.03_PT006H.grib2 2026-05-09 06:05 1.3M
20260509T00Z_MSC_CAPS_WindV_IsbL-0925_RLatLon0.03_PT006H.grib2 2026-05-09 06:05 1.3M
20260509T00Z_MSC_CAPS_WindV_IsbL-0950_RLatLon0.03_PT006H.grib2 2026-05-09 06:05 1.7M
20260509T00Z_MSC_CAPS_WindV_IsbL-0970_RLatLon0.03_PT006H.grib2 2026-05-09 06:05 1.8M
20260509T00Z_MSC_CAPS_WindV_IsbL-0985_RLatLon0.03_PT006H.grib2 2026-05-09 06:05 1.8M
20260509T00Z_MSC_CAPS_WindV_IsbL-1000_RLatLon0.03_PT006H.grib2 2026-05-09 06:05 1.8M
20260509T00Z_MSC_CAPS_WindV_IsbL-1015_RLatLon0.03_PT006H.grib2 2026-05-09 06:05 1.9M